| time (UTC) | temp C | wind direction | speed KPH | gust KPH | rain 1hr cm | rain 24hr cm | rain mn cm | humidity % | barometer mb |
| 20260504081528 | 9 | 175 | 4.8 | 0.0 | 0.00 | 0.00 | 0.00 | 58 | 1012.0 |
| 20260504050002 | 7 | 257 | 4.8 | 0.0 | 0.00 | 0.00 | 0.00 | 59 | 1013.0 |
| 20260504044502 | 7 | 259 | 3.2 | 0.0 | 0.00 | 0.00 | 0.00 | 59 | 1013.0 |
| 20260504043114 | 7 | 281 | 3.2 | 0.0 | 0.00 | 0.00 | 0.00 | 59 | 1012.9 |
| 20260504041558 | 7 | 291 | 4.8 | 0.0 | 0.00 | 0.00 | 0.00 | 60 | 1012.8 |
| 20260504040054 | 7 | 290 | 6.4 | 0.0 | 0.00 | 0.00 | 0.00 | 60 | 1012.8 |
| 20260504034555 | 8 | 181 | 4.8 | 0.0 | 0.00 | 0.00 | 0.00 | 58 | 1012.9 |
| 20260504033103 | 8 | 212 | 1.6 | 0.0 | 0.00 | 0.00 | 0.00 | 57 | 1012.7 |
| 20260504031557 | 8 | 243 | 3.2 | 0.0 | 0.00 | 0.00 | 0.00 | 56 | 1012.5 |
| 20260504030104 | 8 | 242 | 3.2 | 0.0 | 0.00 | 0.00 | 0.00 | 55 | 1012.5 |
| 20260504024552 | 8 | 251 | 3.2 | 0.0 | 0.00 | 0.00 | 0.00 | 55 | 1012.5 |
| 20260504023052 | 8 | 243 | 3.2 | 0.0 | 0.00 | 0.00 | 0.00 | 58 | 1012.4 |
| 20260504021552 | 8 | 238 | 1.6 | 0.0 | 0.00 | 0.00 | 0.00 | 53 | 1012.3 |
| 20260504020055 | 8 | 240 | 1.6 | 0.0 | 0.00 | 0.00 | 0.00 | 54 | 1012.2 |
| 20260504014551 | 8 | 240 | 3.2 | 0.0 | 0.00 | 0.00 | 0.00 | 57 | 1012.0 |
| 20260504013054 | 9 | 236 | 4.8 | 0.0 | 0.00 | 0.00 | 0.00 | 57 | 1012.0 |
| 20260504011549 | 9 | 239 | 3.2 | 0.0 | 0.00 | 0.00 | 0.00 | 54 | 1012.0 |
| 20260504010056 | 9 | 235 | 1.6 | 0.0 | 0.00 | 0.00 | 0.00 | 52 | 1012.1 |
| 20260504004548 | 10 | 235 | 0.0 | 0.0 | 0.00 | 0.00 | 0.00 | 52 | 1011.9 |
| 20260504003048 | 11 | 235 | 0.0 | 0.0 | 0.00 | 0.00 | 0.00 | 51 | 1011.7 |
| 20260504001556 | 11 | 241 | 0.0 | 0.0 | 0.00 | 0.00 | 0.00 | 48 | 1011.6 |
| 20260504000051 | 12 | 247 | 0.0 | 0.0 | 0.00 | 0.00 | 0.00 | 50 | 1011.6 |
| 20260503234546 | 12 | 247 | 1.6 | 0.0 | 0.00 | 0.00 | 0.00 | 52 | 1011.4 |
| 20260503233050 | 13 | 316 | 4.8 | 0.0 | 0.00 | 0.00 | 0.00 | 51 | 1011.4 |
| 20260503231546 | 13 | 281 | 4.8 | 0.0 | 0.00 | 0.00 | 0.00 | 46 | 1011.3 |
| 20260503224545 | 14 | 283 | 6.4 | 0.0 | 0.00 | 0.00 | 0.00 | 44 | 1011.1 |
| 20260503223100 | 15 | 266 | 9.7 | 0.0 | 0.00 | 0.00 | 0.00 | 43 | 1011.1 |
| 20260503221549 | 15 | 255 | 9.7 | 0.0 | 0.00 | 0.00 | 0.00 | 43 | 1011.3 |
| 20260503220043 | 15 | 263 | 9.7 | 0.0 | 0.00 | 0.00 | 0.00 | 41 | 1011.3 |
| 20260503214553 | 15 | 233 | 9.7 | 0.0 | 0.00 | 0.00 | 0.00 | 42 | 1011.3 |
| 20260503213045 | 15 | 338 | 9.7 | 0.0 | 0.00 | 0.00 | 0.00 | 40 | 1011.5 |
| 20260503211541 | 15 | 250 | 8.0 | 0.0 | 0.00 | 0.00 | 0.00 | 42 | 1011.4 |
| 20260503210040 | 15 | 237 | 9.7 | 0.0 | 0.00 | 0.00 | 0.00 | 40 | 1011.4 |
| 20260503204544 | 15 | 354 | 9.7 | 0.0 | 0.00 | 0.00 | 0.00 | 39 | 1011.4 |
| 20260503203041 | 16 | 217 | 11.3 | 0.0 | 0.00 | 0.00 | 0.00 | 39 | 1011.5 |
| 20260503201544 | 16 | 193 | 11.3 | 0.0 | 0.00 | 0.00 | 0.00 | 39 | 1011.5 |
| 20260503200037 | 16 | 254 | 9.7 | 0.0 | 0.00 | 0.00 | 0.00 | 39 | 1011.9 |
| 20260503194537 | 16 | 280 | 16.1 | 0.0 | 0.00 | 0.00 | 0.00 | 39 | 1012.1 |
| 20260503193030 | 16 | 298 | 12.9 | 0.0 | 0.00 | 0.00 | 0.00 | 37 | 1012.2 |
| 20260503191526 | 15 | 331 | 9.7 | 0.0 | 0.00 | 0.00 | 0.00 | 45 | 1012.5 |
| 20260503190038 | 15 | 293 | 11.3 | 0.0 | 0.00 | 0.00 | 0.00 | 44 | 1012.6 |
| 20260503184524 | 16 | 231 | 9.7 | 0.0 | 0.00 | 0.00 | 0.00 | 43 | 1012.9 |
| 20260503183020 | 15 | 187 | 11.3 | 0.0 | 0.00 | 0.00 | 0.00 | 46 | 1013.0 |
| 20260503181534 | 15 | 194 | 9.7 | 0.0 | 0.00 | 0.00 | 0.00 | 46 | 1013.0 |
| 20260503180024 | 15 | 241 | 12.9 | 0.0 | 0.00 | 0.00 | 0.00 | 49 | 1013.1 |
| 20260503174513 | 15 | 269 | 11.3 | 0.0 | 0.00 | 0.00 | 0.00 | 45 | 1013.2 |
| 20260503173010 | 14 | 316 | 14.5 | 0.0 | 0.00 | 0.00 | 0.00 | 47 | 1013.5 |
| 20260503171520 | 14 | 278 | 11.3 | 0.0 | 0.00 | 0.00 | 0.00 | 50 | 1013.5 |